Location: Malcolm X Square
(37.7810°N, 122.4297°W)
Time: 23:29:24
(UTC+00:00)

ARGOS - Pass Details

Date: 13 April 2024
Orbit: 818 x 835 km, 98.4° (Epoch: 21 May)

Event Time Altitude Azimuth Distance (km) Brightness Sun altitude
Rises 12:44:22 0° 20° (NNE) 3,366 7.0 -10.7°
Reaches altitude 10° 12:46:51 10° 27° (NNE) 2,427 6.3 -10.2°
Maximum altitude 12:51:57 44° 99° (E) 1,129 4.4 -9.3°
Drops below altitude 10° 12:57:01 10° 170° (S) 2,404 5.5 -8.3°
Sets 12:59:27 0° 177° (S) 3,332 6.1 -7.9°
